CFULQ CYHZ-CCQ3

Flight info

Callsign CFULQ
Flight time 0h 58m
Altitude 2500
Route VFR TOUR DOWNTOWN HALIFAX THEN DIRECT TO DERBERT
Aircraft C172/L-SFG/C

Departure

Time 2026-04-27 23:59
Airport Halifax / Stanfield International Airport (CYHZ)

Arrival

Time 2026-04-28 00:57
Airport Debert Airport (CCQ3)
Time Latitude Longitude Altitude Speed Heading
2026-04-27 23:37 44.87236 -63.53147 423 ft 0 kts 210°
2026-04-27 23:42 44.87218 -63.53156 450 ft 6 kts 197°
2026-04-27 23:43 44.87160 -63.53192 450 ft 9 kts 206°
2026-04-27 23:43 44.87094 -63.53215 450 ft 10 kts 187°
2026-04-27 23:43 44.87021 -63.53264 450 ft 14 kts 208°
2026-04-27 23:43 44.86937 -63.53324 450 ft 9 kts 194°
2026-04-27 23:44 44.86885 -63.53302 450 ft 8 kts 130°
2026-04-27 23:44 44.86842 -63.53227 450 ft 12 kts 130°
2026-04-27 23:44 44.86780 -63.53123 450 ft 15 kts 133°
2026-04-27 23:44 44.86737 -63.53035 450 ft 9 kts 83°
2026-04-27 23:45 44.86762 -63.52931 450 ft 14 kts 51°
2026-04-27 23:45 44.86834 -63.52809 452 ft 18 kts 50°
2026-04-27 23:45 44.86932 -63.52688 455 ft 20 kts 34°
2026-04-27 23:45 44.87049 -63.52574 457 ft 22 kts 36°
2026-04-27 23:46 44.87180 -63.52445 461 ft 23 kts 34°
2026-04-27 23:46 44.87299 -63.52327 470 ft 21 kts 36°
2026-04-27 23:46 44.87425 -63.52199 470 ft 22 kts 29°
2026-04-27 23:46 44.87555 -63.52075 466 ft 24 kts 34°
2026-04-27 23:47 44.87697 -63.51933 464 ft 26 kts 34°
2026-04-27 23:47 44.87829 -63.51805 463 ft 23 kts 34°
2026-04-27 23:47 44.87959 -63.51675 458 ft 23 kts 39°
2026-04-27 23:47 44.88103 -63.51531 449 ft 24 kts 34°
2026-04-27 23:48 44.88245 -63.51389 447 ft 26 kts 33°
2026-04-27 23:48 44.88373 -63.51268 447 ft 16 kts 37°
2026-04-27 23:48 44.88474 -63.51209 447 ft 17 kts 344°
2026-04-27 23:48 44.88547 -63.51224 447 ft 0 kts 349°
2026-04-27 23:54 44.88553 -63.51226 447 ft 4 kts 349°
2026-04-27 23:54 44.88618 -63.51242 447 ft 14 kts 351°
2026-04-27 23:54 44.88744 -63.51272 447 ft 20 kts 350°
2026-04-27 23:55 44.88881 -63.51307 447 ft 13 kts 352°
2026-04-27 23:55 44.88963 -63.51325 447 ft 15 kts 348°
2026-04-27 23:55 44.89037 -63.51413 442 ft 15 kts 307°
2026-04-27 23:55 44.89103 -63.51543 443 ft 14 kts 305°
2026-04-27 23:56 44.89173 -63.51687 436 ft 20 kts 307°
2026-04-27 23:56 44.89194 -63.51728 440 ft 0 kts 304°
2026-04-27 23:57 44.89217 -63.51771 440 ft 10 kts 315°
2026-04-27 23:57 44.89300 -63.51783 440 ft 15 kts 34°
2026-04-27 23:57 44.89356 -63.51705 440 ft 11 kts 83°
2026-04-27 23:58 44.89305 -63.51608 436 ft 14 kts 124°
2026-04-27 23:58 44.89186 -63.51371 440 ft 55 kts 128°
2026-04-27 23:58 44.88945 -63.50824 614 ft 72 kts 129°
2026-04-27 23:58 44.88664 -63.50195 838 ft 78 kts 127°
2026-04-27 23:59 44.88387 -63.49524 1081 ft 82 kts 112°
2026-04-27 23:59 44.88492 -63.48713 1328 ft 91 kts 63°
2026-04-27 23:59 44.89002 -63.48133 1575 ft 97 kts 34°
2026-04-27 23:59 44.89593 -63.47729 1872 ft 92 kts 31°
2026-04-28 00:00 44.90177 -63.47414 2149 ft 88 kts 27°
2026-04-28 00:00 44.90746 -63.47120 2418 ft 86 kts 27°
2026-04-28 00:00 44.91357 -63.46823 2518 ft 102 kts 26°
2026-04-28 00:00 44.92067 -63.46470 2536 ft 111 kts 28°
2026-04-28 00:01 44.92779 -63.46042 2541 ft 111 kts 30°
2026-04-28 00:01 44.93459 -63.45548 2521 ft 109 kts 35°
2026-04-28 00:01 44.94118 -63.45014 2497 ft 108 kts 38°
2026-04-28 00:01 44.94753 -63.44452 2490 ft 108 kts 39°
2026-04-28 00:02 44.95379 -63.43876 2512 ft 103 kts 46°
2026-04-28 00:02 44.95622 -63.43026 2553 ft 95 kts 99°
2026-04-28 00:02 44.95257 -63.42298 2563 ft 97 kts 153°
2026-04-28 00:02 44.94579 -63.42365 2579 ft 103 kts 198°
2026-04-28 00:03 44.93908 -63.42769 2558 ft 107 kts 199°
2026-04-28 00:03 44.93221 -63.43173 2525 ft 107 kts 187°
2026-04-28 00:03 44.92506 -63.43043 2518 ft 101 kts 164°
2026-04-28 00:03 44.91842 -63.42822 2532 ft 100 kts 163°
2026-04-28 00:04 44.91160 -63.42576 2517 ft 101 kts 162°
2026-04-28 00:04 44.89818 -63.42013 2567 ft 100 kts 162°
2026-04-28 00:04 44.89138 -63.41775 2540 ft 103 kts 163°
2026-04-28 00:05 44.88448 -63.41517 2544 ft 101 kts 161°
2026-04-28 00:05 44.87755 -63.41251 2509 ft 104 kts 162°
2026-04-28 00:05 44.87064 -63.41004 2518 ft 102 kts 162°
2026-04-28 00:05 44.86612 -63.40823 2525 ft 101 kts 160°
2026-04-28 00:06 44.85689 -63.40541 2519 ft 102 kts 166°
2026-04-28 00:06 44.84991 -63.40422 2552 ft 101 kts 184°
2026-04-28 00:06 44.84359 -63.40880 2564 ft 105 kts 212°
2026-04-28 00:06 44.83755 -63.41534 2479 ft 113 kts 214°
2026-04-28 00:07 44.83153 -63.42234 2459 ft 112 kts 217°
2026-04-28 00:07 44.82590 -63.42963 2454 ft 111 kts 218°
2026-04-28 00:07 44.82024 -63.43680 2462 ft 109 kts 217°
2026-04-28 00:07 44.81450 -63.44367 2453 ft 110 kts 214°
2026-04-28 00:08 44.80854 -63.45017 2477 ft 105 kts 213°
2026-04-28 00:08 44.80262 -63.45627 2502 ft 104 kts 211°
2026-04-28 00:08 44.79660 -63.46216 2465 ft 109 kts 210°
2026-04-28 00:08 44.79037 -63.46797 2495 ft 105 kts 206°
2026-04-28 00:09 44.78404 -63.47322 2499 ft 107 kts 205°
2026-04-28 00:09 44.77762 -63.47824 2520 ft 105 kts 204°
2026-04-28 00:09 44.77116 -63.48319 2535 ft 107 kts 204°
2026-04-28 00:09 44.76454 -63.48818 2518 ft 107 kts 204°
2026-04-28 00:10 44.75793 -63.49308 2541 ft 107 kts 203°
2026-04-28 00:10 44.75139 -63.49804 2539 ft 107 kts 204°
2026-04-28 00:10 44.74481 -63.50293 2547 ft 107 kts 204°
2026-04-28 00:10 44.73817 -63.50768 2550 ft 107 kts 203°
2026-04-28 00:11 44.73157 -63.51245 2547 ft 107 kts 202°
2026-04-28 00:11 44.72720 -63.51566 2560 ft 107 kts 204°
2026-04-28 00:11 44.71861 -63.52272 2573 ft 108 kts 206°
2026-04-28 00:11 44.71198 -63.52755 2580 ft 105 kts 201°
2026-04-28 00:12 44.70545 -63.53206 2565 ft 107 kts 201°
2026-04-28 00:12 44.69882 -63.53689 2587 ft 106 kts 204°
2026-04-28 00:12 44.69226 -63.54179 2555 ft 108 kts 201°
2026-04-28 00:12 44.68565 -63.54658 2564 ft 106 kts 203°
2026-04-28 00:13 44.67901 -63.55119 2569 ft 106 kts 201°
2026-04-28 00:13 44.67228 -63.55565 2561 ft 107 kts 199°
2026-04-28 00:13 44.66554 -63.55976 2579 ft 106 kts 200°
2026-04-28 00:13 44.65875 -63.56410 2570 ft 107 kts 202°
2026-04-28 00:14 44.65213 -63.56884 2586 ft 107 kts 201°
2026-04-28 00:14 44.64534 -63.57303 2599 ft 106 kts 199°
2026-04-28 00:14 44.63855 -63.57731 2611 ft 107 kts 200°
2026-04-28 00:14 44.63169 -63.58123 2612 ft 107 kts 195°
2026-04-28 00:15 44.62457 -63.58405 2623 ft 105 kts 191°
2026-04-28 00:15 44.61761 -63.58404 2638 ft 100 kts 153°
2026-04-28 00:15 44.61314 -63.57675 2606 ft 102 kts 108°
2026-04-28 00:15 44.61372 -63.56689 2584 ft 105 kts 70°
2026-04-28 00:16 44.61645 -63.56134 2597 ft 105 kts 50°
2026-04-28 00:16 44.62295 -63.55611 2582 ft 111 kts 20°
2026-04-28 00:16 44.63323 -63.55594 2595 ft 113 kts 358°
2026-04-28 00:16 44.64099 -63.55775 2600 ft 114 kts 352°
2026-04-28 00:17 44.64879 -63.56033 2578 ft 115 kts 349°
2026-04-28 00:17 44.65640 -63.56374 2582 ft 115 kts 345°
2026-04-28 00:17 44.66398 -63.56761 2579 ft 115 kts 342°
2026-04-28 00:17 44.67128 -63.57238 2575 ft 117 kts 337°
2026-04-28 00:18 44.67613 -63.57601 2582 ft 117 kts 333°
2026-04-28 00:18 44.68292 -63.58226 2592 ft 117 kts 325°
2026-04-28 00:18 44.68892 -63.58980 2580 ft 117 kts 314°
2026-04-28 00:18 44.69407 -63.59865 2575 ft 117 kts 309°
2026-04-28 00:19 44.69770 -63.60887 2545 ft 119 kts 280°
2026-04-28 00:19 44.69696 -63.62015 2516 ft 116 kts 245°
2026-04-28 00:19 44.69215 -63.62877 2512 ft 111 kts 212°
2026-04-28 00:19 44.68543 -63.63358 2516 ft 107 kts 199°
2026-04-28 00:20 44.67848 -63.63719 2517 ft 106 kts 192°
2026-04-28 00:20 44.67126 -63.63904 2509 ft 105 kts 180°
2026-04-28 00:20 44.66436 -63.63657 2485 ft 103 kts 145°
2026-04-28 00:20 44.66024 -63.62865 2470 ft 102 kts 108°
2026-04-28 00:21 44.66078 -63.61877 2437 ft 107 kts 69°
2026-04-28 00:21 44.66540 -63.61061 2449 ft 105 kts 54°
2026-04-28 00:21 44.67001 -63.60281 2468 ft 104 kts 57°
2026-04-28 00:21 44.67457 -63.59477 2455 ft 105 kts 56°
2026-04-28 00:22 44.67978 -63.58758 2468 ft 107 kts 41°
2026-04-28 00:22 44.68665 -63.58338 2472 ft 112 kts 15°
2026-04-28 00:22 44.69453 -63.58324 2484 ft 112 kts
2026-04-28 00:22 44.70241 -63.58402 2456 ft 116 kts 358°
2026-04-28 00:23 44.71025 -63.58603 2483 ft 113 kts 349°
2026-04-28 00:23 44.71778 -63.58985 2458 ft 117 kts 339°
2026-04-28 00:23 44.72511 -63.59470 2462 ft 116 kts 338°
2026-04-28 00:23 44.73230 -63.59950 2463 ft 116 kts 336°
2026-04-28 00:24 44.73943 -63.60490 2481 ft 115 kts 333°
2026-04-28 00:24 44.74622 -63.61087 2497 ft 115 kts 329°
2026-04-28 00:24 44.75269 -63.61755 2518 ft 115 kts 323°
2026-04-28 00:24 44.75885 -63.62474 2502 ft 116 kts 322°
2026-04-28 00:25 44.76487 -63.63231 2515 ft 116 kts 318°
2026-04-28 00:25 44.77051 -63.64034 2547 ft 114 kts 316°
2026-04-28 00:25 44.77597 -63.64866 2541 ft 116 kts 313°
2026-04-28 00:25 44.78148 -63.65677 2594 ft 111 kts 324°
2026-04-28 00:26 44.78846 -63.66105 2601 ft 110 kts 359°
2026-04-28 00:26 44.79605 -63.66053 2591 ft 110 kts 11°
2026-04-28 00:26 44.80370 -63.65923 2606 ft 109 kts 11°
2026-04-28 00:26 44.81132 -63.65821 2605 ft 112 kts
2026-04-28 00:27 44.81906 -63.65790 2635 ft 109 kts
2026-04-28 00:27 44.82651 -63.65579 2635 ft 109 kts 22°
2026-04-28 00:27 44.83360 -63.65208 2616 ft 110 kts 27°
2026-04-28 00:27 44.84073 -63.64759 2555 ft 112 kts 32°
2026-04-28 00:28 44.84754 -63.64244 2531 ft 111 kts 34°
2026-04-28 00:28 44.85427 -63.63712 2497 ft 111 kts 34°
2026-04-28 00:28 44.86097 -63.63160 2469 ft 111 kts 36°
2026-04-28 00:28 44.86717 -63.62565 2452 ft 110 kts 40°
2026-04-28 00:29 44.87364 -63.61973 2436 ft 109 kts 38°
2026-04-28 00:29 44.88016 -63.61412 2391 ft 111 kts 36°
2026-04-28 00:29 44.88676 -63.60856 2391 ft 109 kts 38°
2026-04-28 00:29 44.89307 -63.60307 2441 ft 105 kts 36°
2026-04-28 00:30 44.89945 -63.59807 2472 ft 105 kts 35°
2026-04-28 00:30 44.90576 -63.59288 2491 ft 105 kts 37°
2026-04-28 00:30 44.91207 -63.58762 2494 ft 106 kts 35°
2026-04-28 00:30 44.91875 -63.58271 2497 ft 106 kts 33°
2026-04-28 00:31 44.92501 -63.57761 2539 ft 103 kts 40°
2026-04-28 00:31 44.93101 -63.57177 2548 ft 104 kts 41°
2026-04-28 00:31 44.93695 -63.56597 2580 ft 104 kts 41°
2026-04-28 00:31 44.94273 -63.55978 2592 ft 105 kts 43°
2026-04-28 00:32 44.94827 -63.55296 2578 ft 106 kts 48°
2026-04-28 00:32 44.95362 -63.54583 2592 ft 105 kts 50°
2026-04-28 00:32 44.95885 -63.53857 2594 ft 106 kts 49°
2026-04-28 00:32 44.96448 -63.53170 2580 ft 107 kts 44°
2026-04-28 00:33 44.97018 -63.52503 2575 ft 108 kts 46°
2026-04-28 00:33 44.97591 -63.51804 2552 ft 108 kts 46°
2026-04-28 00:33 44.98139 -63.51080 2537 ft 108 kts 49°
2026-04-28 00:33 44.98674 -63.50346 2529 ft 107 kts 49°
2026-04-28 00:34 44.99233 -63.49627 2495 ft 109 kts 45°
2026-04-28 00:34 44.99827 -63.48980 2515 ft 107 kts 43°
2026-04-28 00:34 45.00440 -63.48366 2518 ft 106 kts 39°
2026-04-28 00:34 45.01055 -63.47762 2473 ft 111 kts 40°
2026-04-28 00:35 45.01688 -63.47173 2485 ft 108 kts 38°
2026-04-28 00:35 45.02348 -63.46640 2441 ft 111 kts 33°
2026-04-28 00:35 45.03012 -63.46141 2487 ft 106 kts 33°
2026-04-28 00:35 45.03677 -63.45640 2453 ft 111 kts 33°
2026-04-28 00:36 45.04371 -63.45170 2459 ft 109 kts 31°
2026-04-28 00:36 45.05051 -63.44703 2447 ft 110 kts 30°
2026-04-28 00:36 45.05745 -63.44257 2464 ft 108 kts 31°
2026-04-28 00:36 45.06435 -63.43793 2454 ft 111 kts 30°
2026-04-28 00:37 45.07120 -63.43345 2498 ft 108 kts 31°
2026-04-28 00:37 45.07797 -63.42870 2512 ft 108 kts 31°
2026-04-28 00:37 45.08488 -63.42428 2502 ft 111 kts 27°
2026-04-28 00:37 45.09212 -63.42056 2526 ft 109 kts 26°
2026-04-28 00:38 45.09912 -63.41638 2525 ft 110 kts 29°
2026-04-28 00:38 45.10600 -63.41183 2532 ft 109 kts 31°
2026-04-28 00:38 45.11280 -63.40712 2524 ft 109 kts 32°
2026-04-28 00:38 45.11964 -63.40226 2531 ft 110 kts 30°
2026-04-28 00:39 45.12656 -63.39779 2551 ft 109 kts 32°
2026-04-28 00:39 45.13331 -63.39278 2533 ft 110 kts 33°
2026-04-28 00:39 45.14010 -63.38794 2561 ft 108 kts 34°
2026-04-28 00:39 45.14663 -63.38261 2543 ft 110 kts 36°
2026-04-28 00:40 45.15294 -63.37684 2570 ft 107 kts 40°
2026-04-28 00:40 45.15915 -63.37079 2549 ft 110 kts 38°
2026-04-28 00:40 45.16559 -63.36519 2582 ft 108 kts 36°
2026-04-28 00:40 45.17223 -63.35990 2571 ft 110 kts 33°
2026-04-28 00:41 45.17920 -63.35536 2585 ft 110 kts 25°
2026-04-28 00:41 45.18619 -63.35102 2587 ft 110 kts 31°
2026-04-28 00:41 45.19310 -63.34629 2590 ft 110 kts 32°
2026-04-28 00:41 45.19986 -63.34125 2585 ft 110 kts 32°
2026-04-28 00:42 45.20667 -63.33639 2581 ft 111 kts 31°
2026-04-28 00:42 45.21354 -63.33145 2582 ft 110 kts 31°
2026-04-28 00:42 45.22035 -63.32650 2586 ft 110 kts 32°
2026-04-28 00:42 45.22718 -63.32144 2567 ft 111 kts 33°
2026-04-28 00:43 45.23391 -63.31633 2547 ft 111 kts 32°
2026-04-28 00:43 45.24079 -63.31132 2548 ft 111 kts 31°
2026-04-28 00:43 45.24788 -63.30663 2528 ft 113 kts 27°
2026-04-28 00:43 45.25506 -63.30243 2544 ft 112 kts 27°
2026-04-28 00:44 45.26242 -63.29857 2535 ft 113 kts 22°
2026-04-28 00:44 45.27018 -63.29640 2517 ft 115 kts
2026-04-28 00:44 45.27821 -63.29671 2519 ft 115 kts
2026-04-28 00:44 45.28624 -63.29752 2519 ft 117 kts 359°
2026-04-28 00:45 45.29431 -63.29868 2515 ft 116 kts 357°
2026-04-28 00:45 45.30222 -63.30024 2397 ft 116 kts 354°
2026-04-28 00:45 45.31034 -63.30230 2220 ft 118 kts 354°
2026-04-28 00:45 45.31841 -63.30418 2092 ft 118 kts 354°
2026-04-28 00:46 45.32660 -63.30595 1945 ft 118 kts 356°
2026-04-28 00:46 45.33461 -63.30754 1834 ft 117 kts 355°
2026-04-28 00:46 45.34273 -63.30947 1706 ft 116 kts 354°
2026-04-28 00:46 45.35064 -63.31121 1570 ft 117 kts 355°
2026-04-28 00:47 45.35878 -63.31251 1432 ft 116 kts 358°
2026-04-28 00:47 45.36677 -63.31336 1332 ft 115 kts 360°
2026-04-28 00:47 45.37444 -63.31498 1289 ft 109 kts 336°
2026-04-28 00:47 45.37998 -63.32234 1201 ft 111 kts 311°
2026-04-28 00:48 45.38509 -63.33041 1176 ft 108 kts 310°
2026-04-28 00:48 45.39030 -63.33830 1085 ft 112 kts 314°
2026-04-28 00:48 45.39594 -63.34616 920 ft 115 kts 315°
2026-04-28 00:48 45.40159 -63.35376 922 ft 112 kts 314°
2026-04-28 00:49 45.40706 -63.36168 938 ft 113 kts 311°
2026-04-28 00:49 45.41227 -63.37001 970 ft 111 kts 308°
2026-04-28 00:49 45.41732 -63.37841 972 ft 112 kts 307°
2026-04-28 00:49 45.42232 -63.38682 959 ft 111 kts 309°
2026-04-28 00:50 45.42723 -63.39510 938 ft 111 kts 306°
2026-04-28 00:50 45.43182 -63.40388 928 ft 109 kts 306°
2026-04-28 00:50 45.43665 -63.41211 940 ft 110 kts 312°
2026-04-28 00:50 45.44175 -63.42017 976 ft 107 kts 305°
2026-04-28 00:51 45.44622 -63.42868 1027 ft 109 kts 303°
2026-04-28 00:51 45.45058 -63.43751 1065 ft 110 kts 301°
2026-04-28 00:51 45.45419 -63.44697 1092 ft 108 kts 279°
2026-04-28 00:51 45.45274 -63.45686 1068 ft 102 kts 242°
2026-04-28 00:52 45.45088 -63.46657 1108 ft 101 kts 251°
2026-04-28 00:52 45.44922 -63.47625 1139 ft 101 kts 251°
2026-04-28 00:52 45.44766 -63.48603 1153 ft 102 kts 253°
2026-04-28 00:52 45.44606 -63.49576 1182 ft 99 kts 250°
2026-04-28 00:53 45.44440 -63.50554 1190 ft 103 kts 253°
2026-04-28 00:53 45.44292 -63.51475 1223 ft 88 kts 251°
2026-04-28 00:53 45.44133 -63.52292 1160 ft 83 kts 246°
2026-04-28 00:53 45.43880 -63.52980 1107 ft 71 kts 223°
2026-04-28 00:54 45.43450 -63.53066 1020 ft 67 kts 163°
2026-04-28 00:54 45.43051 -63.52867 940 ft 56 kts 161°
2026-04-28 00:54 45.42662 -63.52631 877 ft 64 kts 159°
2026-04-28 00:54 45.42253 -63.52367 861 ft 62 kts 153°
2026-04-28 00:55 45.41863 -63.52117 845 ft 62 kts 156°
2026-04-28 00:55 45.41455 -63.51900 825 ft 64 kts 161°
2026-04-28 00:55 45.41026 -63.51684 796 ft 63 kts 160°
2026-04-28 00:55 45.40627 -63.51357 703 ft 71 kts 133°
2026-04-28 00:56 45.40564 -63.50634 576 ft 84 kts 75°
2026-04-28 00:56 45.40793 -63.49901 467 ft 75 kts 78°
2026-04-28 00:56 45.40927 -63.49216 393 ft 69 kts 84°
2026-04-28 00:56 45.41048 -63.48548 308 ft 71 kts 74°
2026-04-28 00:57 45.41207 -63.47918 260 ft 64 kts 81°
2026-04-28 00:57 45.41336 -63.47299 192 ft 66 kts 76°
2026-04-28 00:57 45.41458 -63.46724 136 ft 47 kts 77°
2026-04-28 00:57 45.41528 -63.46388 137 ft 27 kts 75°
2026-04-28 00:58 45.41578 -63.46136 134 ft 27 kts 71°
2026-04-28 00:58 45.41637 -63.45879 134 ft 29 kts 82°
2026-04-28 00:58 45.41684 -63.45668 133 ft 10 kts 46°
2026-04-28 00:58 45.41766 -63.45726 134 ft 17 kts 322°
2026-04-28 00:59 45.41861 -63.45859 136 ft 22 kts 316°
2026-04-28 00:59 45.41962 -63.45999 137 ft 21 kts 311°
2026-04-28 00:59 45.42061 -63.46137 134 ft 15 kts 313°
2026-04-28 00:59 45.42152 -63.46267 133 ft 22 kts 316°
2026-04-28 01:00 45.42242 -63.46388 134 ft 14 kts
2026-04-28 01:00 45.42239 -63.46405 132 ft 14 kts 139°
2026-04-28 01:00 45.42161 -63.46307 133 ft 13 kts 161°
2026-04-28 01:00 45.42085 -63.46341 132 ft 15 kts 209°
2026-04-28 01:01 45.42093 -63.46424 132 ft 14 kts 323°
2026-04-28 01:01 45.42095 -63.46540 134 ft 15 kts 248°
2026-04-28 01:01 45.42063 -63.46666 136 ft 13 kts 246°
2026-04-28 01:01 45.42023 -63.46716 137 ft 10 kts 172°
2026-04-28 01:02 45.41992 -63.46680 136 ft 5 kts 285°
2026-04-28 01:02 45.41994 -63.46684 136 ft 0 kts 294°